Location: ??????
(41.3164°N, 22.6615°E)
Time: 02:34:50
(UTC+00:00)

CAS-4A - Pass Details

Date: 04 July 2022
Orbit: 521 x 537 km, 43.0° (Epoch: 10 August)

Event Time Altitude Azimuth Distance (km) Brightness Sun altitude
Exits shadow 23:36:40 38° 83° (E) 802 ? -24.2°
Drops below altitude 10° 23:39:15 10° 77° (ENE) 1,758 ? -24.1°
Sets 23:41:29 0° 76° (ENE) 2,650 ? -24.0°
